This is the latest recevied weather packets stored in our database for station/object WB4MOZ-3. If no packets are shown the sender has not sent any weather packets the latest 10 day(s).
| Time | Temp. | Humidity | Pressure | Rain* | Wind** | Luminosity | Snow |
|---|---|---|---|---|---|---|---|
| 1778090379 | 34.44° C | 45% | 1014.9 hPa | 0 mm | - | - | - |
| 1778089779 | 34.44° C | 45% | 1015 hPa | 0 mm | - | - | - |
| 1778089479 | 34.44° C | 46% | 1015 hPa | 0 mm | - | - | - |
| 1778089179 | 34.44° C | 44% | 1015.2 hPa | 0 mm | - | - | - |
| 1778088879 | 33.89° C | 46% | 1015.2 hPa | 0 mm | - | - | - |
| 1778088579 | 33.89° C | 47% | 1015.2 hPa | 0 mm | - | - | - |
| 1778088279 | 33.89° C | 46% | 1015.2 hPa | 0 mm | - | - | - |
| 1778087979 | 34.44° C | 46% | 1015.2 hPa | 0 mm | - | - | - |
| 1778087679 | 33.89° C | 42% | 1015.2 hPa | 0 mm | - | - | - |
| 1778087378 | 34.44° C | 46% | 1015.2 hPa | 0 mm | - | - | - |
| 1778087082 | 34.44° C | 47% | 1015.2 hPa | 0 mm | - | - | - |
| 1778086779 | 34.44° C | 47% | 1015.4 hPa | 0 mm | - | - | - |
| 1778086479 | 34.44° C | 48% | 1015.4 hPa | 0 mm | - | - | - |
| 1778085878 | 34.44° C | 47% | 1015.5 hPa | 0 mm | - | - | - |
| 1778085279 | 34.44° C | 49% | 1015.6 hPa | 0 mm | - | - | - |
| 1778084979 | 33.89° C | 50% | 1015.6 hPa | 0 mm | - | - | - |
| 1778084678 | 33.89° C | 51% | 1015.7 hPa | 0 mm | - | - | - |
| 1778084378 | 33.89° C | 50% | 1015.7 hPa | 0 mm | - | - | - |
| 1778083778 | 33.33° C | 54% | 1015.8 hPa | 0 mm | - | - | - |
| 1778083478 | 33.33° C | 54% | 1015.8 hPa | 0 mm | - | - | - |
| 1778083179 | 33.89° C | 53% | 1015.9 hPa | 0 mm | - | - | - |
| 1778082878 | 33.89° C | 50% | 1015.9 hPa | 0 mm | - | - | - |
| 1778082579 | 33.89° C | 53% | 1016 hPa | 0 mm | - | - | - |
| 1778082278 | 33.33° C | 54% | 1015.8 hPa | 0 mm | - | - | - |
| 1778081979 | 33.33° C | 52% | 1015.8 hPa | 0 mm | - | - | - |
* Rain latest hour (hover to see other rain measurements)
** Current wind speed in m/s (hover to see current wind gust speed)